North Pole, Alaska, United States (99705)
Lat: 64.75N, Lon: 147.35W
Wx Zone: AKZ222
Local Info
Past Weather Observations for Monday, March 23, 2015

NOTE: This archive is for the closest National Weather Service station to North Pole. Information may differ from the station used for current weather conditions.

Click here for Long-term Archive

Time Weather Temperature Dewpoint Humidity Pressure Winds Precip Visibility
23:56
Clear
10°F / -12°C 7°F / -14°C 85% 29.92 in
(1013 mb)
ENE 3.5 mph
(ENE 6 kph)
- 10SM
22:56
Clear
12°F / -11°C 9°F / -13°C 85% 29.95 in
(1014 mb)
Calm - 10SM
21:56
Clear
19°F / -7°C 10°F / -12°C 68% 29.92 in
(1013 mb)
ENE 3.5 mph
(ENE 6 kph)
- 10SM
20:56
Clear
27°F / -3°C 14°F / -10°C 59% 29.95 in
(1014 mb)
SSW 3.5 mph
(SSW 6 kph)
- 10SM
20:55
Clear
27°F / -3°C 14°F / -10°C 59% 29.95 in
(1014 mb)
SSW 3.5 mph
(SSW 6 kph)
- 7SM
19:55
Partly Cloudy
27°F / -3°C 14°F / -10°C 59% 29.95 in
(1014 mb)
SSW 3.5 mph
(SSW 6 kph)
- 25SM
18:55
Partly Cloudy
28°F / -2°C 16°F / -9°C 59% 29.95 in
(1014 mb)
Calm - 25SM
17:55
Partly Cloudy
30°F / -1°C 16°F / -9°C 55% 29.95 in
(1014 mb)
Calm - 25SM
16:55
Partly Cloudy
34°F / 1°C 16°F / -9°C 48% 29.95 in
(1014 mb)
Calm - 25SM
15:55
Partly Cloudy
30°F / -1°C 18°F / -8°C 59% 29.95 in
(1014 mb)
Calm - 25SM
14:55
Partly Cloudy
30°F / -1°C 19°F / -7°C 64% 29.98 in
(1015 mb)
Calm - 25SM
13:55
Partly Cloudy
28°F / -2°C 19°F / -7°C 69% 29.98 in
(1015 mb)
WNW 3.5 mph
(WNW 6 kph)
- 25SM
12:55
Partly Cloudy
27°F / -3°C 18°F / -8°C 69% 29.98 in
(1015 mb)
NW 3.5 mph
(NW 6 kph)
- 25SM
11:55
Partly Cloudy
23°F / -5°C 16°F / -9°C 74% 29.98 in
(1015 mb)
Calm - 25SM
10:55
Partly Cloudy
18°F / -8°C 12°F / -11°C 79% 29.98 in
(1015 mb)
Calm - 25SM
09:55
Partly Cloudy
16°F / -9°C 12°F / -11°C 86% 29.98 in
(1015 mb)
Calm - 25SM
08:55
Partly Cloudy
12°F / -11°C 9°F / -13°C 85% 29.98 in
(1015 mb)
Calm - 10SM
07:55
Partly Cloudy
Fog
5°F / -15°C 1°F / -17°C 85% 29.98 in
(1015 mb)
Calm - 7SM
06:55
Partly Cloudy
Fog
5°F / -15°C 1°F / -17°C 85% 29.98 in
(1015 mb)
Calm - 7SM
05:55
Partly Cloudy
7°F / -14°C 1°F / -17°C 78% 29.98 in
(1015 mb)
Calm - 10SM
05:23
Partly Cloudy
7°F / -14°C 3°F / -16°C 85% 29.98 in
(1015 mb)
Calm - 10SM
04:56
Clear
7°F / -14°C 1°F / -17°C 78% 29.98 in
(1015 mb)
Calm - 10SM
03:56
Clear
7°F / -14°C 1°F / -17°C 78% 29.98 in
(1015 mb)
Calm - 10SM
02:56
Overcast
9°F / -13°C 5°F / -15°C 85% 29.98 in
(1015 mb)
Calm - 10SM
01:56
Clear
9°F / -13°C 3°F / -16°C 78% 29.98 in
(1015 mb)
Calm - 10SM
00:56
Clear
Fog And Mist
9°F / -13°C 7°F / -14°C 92% 29.98 in
(1015 mb)
Calm - 6SM
Time Weather Temperature Dewpoint Humidity Pressure Winds Precip Visibility


Weather for websites

WeatherForYou.com, LLC is not responsible for any damages or problems caused by this service. Current weather conditions are obtained from the closest station including government and personal stations which may have varying degrees of accuracy. Weather forecasts are derived from the NOAA NDFD. Like all things, this site belongs to Jesus Christ... He just trusts me to maintain it. If you have any questions or comments email webmaster@weatherforyou.com

Copyright © 2015, WeatherForYou.com LLC. All rights reserved.